{"data":{"norad_id":38709,"intl_designator":"2012-039C","name":"EXACTVIEW-1 (ADS-1B)","alt_names":[],"object_type":"PAYLOAD","status":"ACTIVE","operator":null,"country":"CA","launch_date":"2012-07-22","launch_site_code":"TYMSC","launch_vehicle":null,"mission":null,"orbit_class":"UNKNOWN","rcs_meters":0.553,"size_class":null,"mass_kg":null,"dimensions":null,"purposes":["earth_obs"],"wikipedia_slug":null,"has_3d_model":false,"image_url":null,"decayed_at":null,"tle_current":{"epoch":"2026-05-24T22:17:57.180192Z","epoch_age_seconds":88018,"freshness":"FRESH","line1":"1 38709U 12039C   26144.92913403  .00000093  00000+0  59537-4 0  9994","line2":"2 38709  98.9749 261.7974 0010022 235.1593 124.8643 14.24976639719392","mean_motion":14.24976639,"eccentricity":0.0010022,"inclination_deg":98.9749,"raan_deg":261.7974,"arg_perigee_deg":235.1593,"mean_anomaly_deg":124.8643,"bstar":5.9537e-5,"rev_number":71939,"period_min":101.05428823104,"perigee_km":801.36867969292,"apogee_km":815.77371760629,"semimajor_km":7186.7081986496,"source":"CELESTRAK","updated_at":"2026-05-25T13:38:12.780605Z"}}}